Overview Statistics Trail Chart Weather Telemetry Raw packets
 

This is the latest recevied weather packets stored in our database for station/object KB1RMA-4. If no packets are shown the sender has not sent any weather packets the latest 10 day(s).

<< 71 72 73 74 75 76 77 >>
Time Temp. Humidity Pressure Rain* Wind** Luminosity Snow
1788125335 26.11° C 50% 1016 hPa 0 mm - 73 W/m² -
1788125031 26.11° C 48% 1015.7 hPa 0 mm - 71 W/m² -
1788124730 26.67° C 49% 1016 hPa 0 mm - 80 W/m² -
1788124424 26.67° C 47% 1015.9 hPa 0 mm - 105 W/m² -
1788124120 26.67° C 47% 1016.1 hPa 0 mm - 136 W/m² -
1788123819 26.67° C 47% 1016.1 hPa 0 mm - 144 W/m² -
1788123517 26.67° C 46% 1015.9 hPa 0 mm - 153 W/m² -
1788123216 27.22° C 46% 1016.1 hPa 0 mm - 178 W/m² -
1788122912 27.22° C 46% 1016 hPa 0 mm - 177 W/m² -
1788122611 27.22° C 46% 1016.2 hPa 0 mm - 191 W/m² -
1788122306 27.22° C 44% 1016 hPa 0 mm - 191 W/m² -
1788122003 27.22° C 45% 1016.4 hPa 0 mm - 199 W/m² -
1788121702 27.22° C 46% 1016.1 hPa 0 mm - 190 W/m² -
1788121397 27.22° C 46% 1016.3 hPa 0 mm - 142 W/m² -
1788121093 27.22° C 44% 1016.4 hPa 0 mm - 116 W/m² -
1788120787 27.22° C 45% 1016.2 hPa 0 mm - 143 W/m² -
1788120482 27.22° C 45% 1016.2 hPa 0 mm - 133 W/m² -
1788120181 27.78° C 44% 1016.4 hPa 0 mm - 144 W/m² -
1788119877 27.78° C 44% 1016.4 hPa 0 mm - 186 W/m² -
1788119577 27.78° C 44% 1016.3 hPa 0 mm - 124 W/m² -
1788119274 27.78° C 45% 1016.5 hPa 0 mm - 149 W/m² -
1788118969 27.78° C 45% 1016.6 hPa 0 mm - 144 W/m² -
1788118664 27.22° C 45% 1016.7 hPa 0 mm - 166 W/m² -
1788118364 27.22° C 43% 1016.9 hPa 0 mm - 172 W/m² -
1788118060 27.78° C 43% 1017.1 hPa 0 mm - 162 W/m² -

* Rain latest hour (hover to see other rain measurements)
** Current wind speed in m/s (hover to see current wind gust speed)